FLOCK 3P-69 (42020 NORAD) Tracking and Keplerian Element Data

This shows tracking and keplerian element data for the satellite.

Feedback or suggestion? Click here.




ElementValue
Catalog42020
NameFLOCK 3P-69
Epoch Orbit5413
Epoch Day45.42484864
Epoch Year2018
RAAN111.1079
Inclination97.4685
Eccentricity0.0009746
Argument of Perigee72.0167
Mean Anonmoly288.2132
Mean Motion15.23905793
Decay Rate1.542E-05
L11 42020U 17008CA 18045.42484864 .00001542 00000-0 66785-4 0 9990
L22 42020 97.4685 111.1079 0009746 72.0167 288.2132 15.23905793 54131

Live tracking and technical data element details for FLOCK 3P-69 (NORAD 42020). FLOCK 3P-69 can be tracked NOW for your location showing map with azimuth and elevation plus other details from your city location.

Track the satellite on the map from your city or location and see movement details for azimuth, elevation, latitude, longitude, range, height, and movement on the map or in text.







IsCatalogInMostPopularTable: catalog: 42020, numindb: 116
Update: records affected: 1



GetName: 42020 FLOCK 3P-69

Hit Count: updated at: Tue, 25 Sep 2018 14:32:53 GMT